[[{"header":{"parameterUnit":"m.s-1","parameterCategory":2,"la1":30.2991,"la2":30.254,"lo1":-89.0895,"lo2":-89.0444,"dy":0.0017,"dx":0.0017,"nx":28,"ny":28,"refTime":"2024-11-29T09:00:00:Z","depth":"0","parameterNumber":2,"parameterNumberName":"U-component_of_CURRENTS"},"data":[0,0,0,0,0,0,0,0,0,0,0,0,0,0,0,0,0,0,0,0,0,0,0,0,0,0,0,0,0,0,0,0,0,0,0,0,0,0,0,0,0,0,0,0,0,0,0,0,0,0,0,0,0,0,0,0,0,0,0.289,0.2891,0,0.2944,0.2944,0.2945,0.2952,0.2952,0.2952,0.2951,0.2971,0.2972,0.2973,0,0,0,0,0,0,0,0,0,0,0,0,0,0.2828,0.2828,0.289,0.2891,0.2892,0.2944,0.2944,0.2945,0.2953,0.2952,0.2952,0.2951,0.2971,0.2972,0.2973,0,0,0,0,0,0,0,0,0,0,0,0,0,0.2864,0.2829,0.289,0.2902,0.2904,0.2944,0.2944,0.2945,0.2953,0.2952,0.2951,0.2951,0.2971,0.2972,0.2973,0.2993,0,0,0.2977,0.2978,0,0,0,0,0,0,0,0,0.2862,0.2866,0.29,0.2902,0.2904,0.2942,0.293,0.296,0.2953,0.2933,0.2951,0.2951,0.2959,0.2962,0.2972,0.2994,0.2995,0.2977,0.2978,0.2979,0.2979,0,0,0,0,0,0,0,0.286,0.2864,0.291,0.2901,0.2903,0.2917,0.2921,0.2936,0.2947,0.2935,0.2936,0.2944,0.296,0.2971,0.2972,0.2996,0.2977,0.2979,0.2979,0.298,0.3079,0.308,0,0,0,0,0,0,0.2854,0.2862,0.2909,0.2912,0.2882,0.2918,0.2923,0.2929,0.2948,0.2951,0.2944,0.2944,0.2969,0.2971,0.2973,0.3044,0.2979,0.298,0.2981,0.3077,0.3079,0.3081,0,0,0,0,0,0,0.2853,0.2858,0.2906,0.2889,0.2896,0.292,0.2927,0.2931,0.2944,0.2956,0.2958,0.2954,0.2968,0.2971,0.3001,0.3043,0.2981,0.2982,0.3075,0.3078,0.308,0.3156,0,0,0,0,0,0,0.285,0.2857,0.2862,0.2889,0.2897,0.2945,0.2928,0.2932,0.295,0.2951,0.2965,0.2966,0.2968,0.2999,0.3002,0.3043,0.2983,0.3072,0.3076,0.3079,0.3151,0.3161,0.3169,0,0,0,0,0,0.2848,0.2859,0.2862,0.2868,0.2903,0.2946,0.2953,0.2966,0.2951,0.2972,0.2979,0.2966,0.3023,0.3001,0.3005,0.3047,0.3071,0.3075,0.3079,0.3147,0.3159,0.3169,0,0,0,0,0,0,0.2834,0.2861,0.2865,0.2883,0.2919,0.2948,0.2966,0.297,0.2992,0.2988,0.2986,0.2989,0.3035,0.3028,0.3004,0.3086,0.3046,0.3051,0.3097,0.3108,0.3117,0.3118,0.2984,0,0,0,0,0,0.2833,0.2847,0.2882,0.2898,0.2917,0.294,0.2957,0.2971,0.2992,0.3,0.3009,0.3023,0.3056,0.3068,0.3091,0.3129,0.3144,0.316,0.3169,0.3177,0.3181,0.3239,0.3254,0.3094,0.3094,0.3094,0,0,0.283,0.2849,0.2855,0.2896,0.2921,0.2963,0.295,0.2985,0.3022,0.2999,0.3044,0.3055,0.3073,0.3126,0.3145,0.3123,0.3236,0.3182,0.3189,0.3188,0.3245,0.326,0.3274,0.3097,0.3097,0.3096,0,0,0.284,0.2851,0.2873,0.2909,0.2954,0.2979,0.299,0.3028,0.3049,0.3093,0.3094,0.3127,0.3161,0.3192,0.321,0.328,0.3283,0.3289,0.3335,0.3392,0.3406,0.3418,0.3479,0.3496,0.3291,0.3291,0.3291,0,0.2834,0.2867,0.2888,0.2929,0.2959,0.2987,0.3028,0.3066,0.3108,0.3136,0.3116,0.3191,0.3198,0.3277,0.3302,0.3302,0.3334,0.3292,0.3404,0.3416,0.3427,0.3487,0.3505,0.3295,0.3295,0.3295,0.3294,0,0.2869,0.2902,0.2922,0.298,0.3018,0.3059,0.3114,0.3156,0.3174,0.3209,0.328,0.3295,0.3339,0.3354,0.3347,0.3438,0.3438,0.3412,0.3376,0.3448,0.3507,0.3524,0.3301,0.33,0.3299,0.3298,0,0,0.2834,0.2926,0.2932,0.2973,0.3046,0.3084,0.3157,0.3235,0.3286,0.333,0.3395,0.3449,0.3454,0.3473,0.3478,0.3519,0.3626,0.3499,0.35,0.356,0.3768,0.3733,0.3748,0.3623,0.3626,0.3628,0.3786,0,0.2854,0.2935,0.2972,0.3052,0.3102,0.3155,0.3221,0.3296,0.335,0.3424,0.3468,0.3527,0.3505,0.3524,0.3573,0.3612,0.3671,0.3587,0.3689,0.3693,0.3652,0.3766,0.3679,0.3809,0.3802,0.3805,0.3807,0,0.2872,0.293,0.3,0.3101,0.3124,0.317,0.3275,0.3342,0.3458,0.3496,0.357,0.3605,0.3696,0.3644,0.3775,0.3725,0.3758,0.3778,0.3784,0.3732,0.3688,0.3732,0.384,0.3792,0.3833,0.3831,0.3829,0,0.2842,0.2947,0.3,0.3035,0.3148,0.3185,0.325,0.3359,0.3429,0.3545,0.3602,0.3705,0.3762,0.3825,0.3888,0.384,0.4023,0.3958,0.3966,0.3964,0.3899,0.3886,0.3967,0.4053,0.4053,0.4052,0.4052,0,0.2845,0.2891,0.299,0.3022,0.3086,0.3175,0.3249,0.3328,0.3455,0.3526,0.3634,0.3704,0.3808,0.3922,0.395,0.4038,0.4088,0.4006,0.4012,0.3925,0.3913,0.387,0.3828,0.4058,0.4057,0.4056,0.4055,0,0.2795,0.2862,0.2925,0.3035,0.3068,0.311,0.3236,0.3297,0.3429,0.3527,0.357,0.375,0.3879,0.3999,0.4117,0.4121,0.4101,0.4206,0.4103,0.4092,0.399,0.3955,0.3855,0.3731,0.4225,0.4225,0.4226,0,0.2778,0.2805,0.29,0.2926,0.2966,0.3047,0.3095,0.3247,0.3313,0.3527,0.3567,0.3764,0.3877,0.41,0.4146,0.4252,0.412,0.4204,0.4074,0.4007,0.3974,0.378,0.3667,0.4037,0.4036,0.4035,0.4034,0,0.2734,0.2753,0.28,0.2851,0.2893,0.2951,0.304,0.3101,0.3263,0.3379,0.354,0.3674,0.3902,0.3995,0.4156,0.4182,0.4024,0.4179,0.4146,0.3873,0.3632,0.3508,0.3918,0.4024,0.4025,0.4026,0.4026,0.4027,0.2677,0.268,0.2728,0.2769,0.2814,0.2848,0.2864,0.2979,0.3089,0.324,0.3412,0.3573,0.382,0.4035,0.4044,0.4044,0.3934,0.3959,0.3941,0.3764,0.3573,0.396,0.4037,0.4038,0.4039,0.4039,0.404,0,0.2599,0.2616,0.2652,0.2684,0.269,0.2747,0.2814,0.2818,0.2893,0.308,0.3224,0.3483,0.3665,0.3832,0.3968,0.3867,0.3648,0.3779,0.3513,0.3423,0.384,0.3762,0.3738,0.3738,0.3738,0.3738,0.3738,0.3738,0.2555,0.255,0.2571,0.2554,0.2574,0.2541,0.2553,0.2587,0.2691,0.284,0.2986,0.3149,0.355,0.3879,0.3894,0.3786,0.3484,0.3349,0.3283,0.3647,0.3662,0.3675,0.3595,0.3535,0.3535,0.2731,0.2726,0.2722]},{"header":{"parameterUnit":"m.s-1","parameterCategory":2,"la1":30.2991,"la2":30.254,"lo1":-89.0895,"lo2":-89.0444,"dy":0.0017,"dx":0.0017,"nx":28,"ny":28,"refTime":"2024-11-29T09:00:00:Z","depth":"0","parameterNumber":3,"parameterNumberName":"V-component_of_CURRENTS"},"data":[0,0,0,0,0,0,0,0,0,0,0,0,0,0,0,0,0,0,0,0,0,0,0,0,0,0,0,0,0,0,0,0,0,0,0,0,0,0,0,0,0,0,0,0,0,0,0,0,0,0,0,0,0,0,0,0,0,0,-0.0266,-0.0266,0,-0.0349,-0.035,-0.0351,-0.0417,-0.0418,-0.0418,-0.0418,-0.0537,-0.054,-0.0542,0,0,0,0,0,0,0,0,0,0,0,0,0,-0.0221,-0.0221,-0.0266,-0.0266,-0.0267,-0.0349,-0.035,-0.0352,-0.0417,-0.0418,-0.0418,-0.0419,-0.0536,-0.0539,-0.0543,0,0,0,0,0,0,0,0,0,0,0,0,0,-0.0267,-0.0221,-0.0265,-0.0309,-0.0313,-0.0349,-0.035,-0.0352,-0.0417,-0.0418,-0.0418,-0.0419,-0.0535,-0.0539,-0.0543,-0.0553,0,0,-0.0556,-0.0557,0,0,0,0,0,0,0,0,-0.0264,-0.0269,-0.0301,-0.0306,-0.0311,-0.0372,-0.0378,-0.0421,-0.0417,-0.0379,-0.0418,-0.0419,-0.0484,-0.0492,-0.0508,-0.0559,-0.0564,-0.0556,-0.0558,-0.056,-0.0561,0,0,0,0,0,0,0,-0.0261,-0.0266,-0.03,-0.0302,-0.0308,-0.0344,-0.0351,-0.0387,-0.0428,-0.0382,-0.0387,-0.0394,-0.0487,-0.0504,-0.0511,-0.0566,-0.0556,-0.0559,-0.0562,-0.0563,-0.0673,-0.0674,0,0,0,0,0,0,-0.0244,-0.0263,-0.0298,-0.0303,-0.0287,-0.0344,-0.0352,-0.0353,-0.0427,-0.0438,-0.0393,-0.0396,-0.0496,-0.0506,-0.0516,-0.056,-0.056,-0.0564,-0.0566,-0.0673,-0.0673,-0.0674,0,0,0,0,0,0,-0.0242,-0.0246,-0.0294,-0.0284,-0.0292,-0.0343,-0.0344,-0.0354,-0.0371,-0.0434,-0.0447,-0.04,-0.0497,-0.051,-0.0549,-0.0564,-0.0566,-0.0569,-0.0672,-0.0673,-0.0673,-0.063,0,0,0,0,0,0,-0.0241,-0.0245,-0.024,-0.0282,-0.0292,-0.0311,-0.0344,-0.0355,-0.0374,-0.0379,-0.0444,-0.0456,-0.0499,-0.0543,-0.0553,-0.0569,-0.0572,-0.0671,-0.0672,-0.0673,-0.0631,-0.0629,-0.0628,0,0,0,0,0,-0.0239,-0.0226,-0.0239,-0.0244,-0.0284,-0.0311,-0.0319,-0.036,-0.0373,-0.0378,-0.0424,-0.0454,-0.0557,-0.0546,-0.0558,-0.0576,-0.0671,-0.0672,-0.0673,-0.0632,-0.063,-0.0628,0,0,0,0,0,0,-0.0207,-0.0233,-0.0248,-0.0245,-0.0274,-0.0321,-0.0326,-0.0352,-0.0391,-0.0396,-0.0454,-0.0469,-0.0512,-0.0545,-0.0532,-0.0611,-0.0621,-0.0625,-0.0586,-0.0584,-0.0583,-0.0555,-0.0576,0,0,0,0,0,-0.0195,-0.0193,-0.0228,-0.0227,-0.0235,-0.0278,-0.0293,-0.032,-0.0359,-0.0377,-0.0421,-0.0474,-0.0526,-0.0553,-0.0599,-0.0634,-0.065,-0.0656,-0.0654,-0.0653,-0.0639,-0.0692,-0.0693,-0.0677,-0.0677,-0.0677,0,0,-0.0183,-0.0197,-0.0196,-0.022,-0.0243,-0.0252,-0.0289,-0.0306,-0.0322,-0.0383,-0.0413,-0.0465,-0.0533,-0.0579,-0.0602,-0.0609,-0.0661,-0.0654,-0.0652,-0.064,-0.0693,-0.0694,-0.0696,-0.0678,-0.0678,-0.0678,0,0,-0.0154,-0.0167,-0.0154,-0.0173,-0.02,-0.0229,-0.0229,-0.0271,-0.0298,-0.0331,-0.0388,-0.0442,-0.0507,-0.0567,-0.0605,-0.0619,-0.0649,-0.0639,-0.0613,-0.0664,-0.0665,-0.0667,-0.0662,-0.0663,-0.0642,-0.0641,-0.0641,0,-0.0139,-0.0127,-0.0157,-0.0152,-0.016,-0.0212,-0.0204,-0.0241,-0.0294,-0.0312,-0.0332,-0.0441,-0.0503,-0.0571,-0.0587,-0.0616,-0.0628,-0.0614,-0.0661,-0.0663,-0.0665,-0.066,-0.0662,-0.064,-0.064,-0.064,-0.064,0,-0.0102,-0.0096,-0.0089,-0.0099,-0.0114,-0.0116,-0.0164,-0.0185,-0.022,-0.026,-0.0321,-0.0406,-0.0466,-0.051,-0.0557,-0.0612,-0.0608,-0.0649,-0.066,-0.0664,-0.0658,-0.0661,-0.0637,-0.0637,-0.0638,-0.0639,0,0,-0.0056,-0.0061,-0.0058,-0.0049,-0.0083,-0.0089,-0.0112,-0.0147,-0.0145,-0.0226,-0.0234,-0.0361,-0.04,-0.0446,-0.0519,-0.0579,-0.0612,-0.0617,-0.0621,-0.06,-0.068,-0.0617,-0.0614,-0.0664,-0.0665,-0.0666,-0.0659,0,-0.0017,0.0013,-0.0006,0.0015,0.0028,-0.002,-0.0026,-0.0069,-0.0109,-0.0131,-0.0243,-0.0281,-0.038,-0.04,-0.0481,-0.0572,-0.0622,-0.0607,-0.069,-0.0691,-0.0626,-0.0617,-0.0598,-0.0586,-0.0662,-0.0663,-0.0663,0,0.003,0.0044,0.0082,0.0088,0.0092,0.0096,0.009,0.0073,0.0014,-0.0018,-0.009,-0.0157,-0.0257,-0.0334,-0.0492,-0.0475,-0.0571,-0.0648,-0.0651,-0.0607,-0.0634,-0.0603,-0.0589,-0.0786,-0.0668,-0.0668,-0.0667,0,0.0089,0.0105,0.0142,0.0143,0.0142,0.0154,0.0148,0.0113,0.0129,0.0062,0.008,-0.0061,-0.0088,-0.0256,-0.0406,-0.0453,-0.0549,-0.0636,-0.0665,-0.066,-0.0666,-0.0659,-0.0844,-0.0746,-0.0746,-0.0746,-0.0746,0,0.0143,0.0171,0.0179,0.0202,0.026,0.0226,0.0284,0.0252,0.025,0.0295,0.0151,0.0181,-0.0071,-0.0151,-0.034,-0.0472,-0.0497,-0.064,-0.0659,-0.0646,-0.0638,-0.0827,-0.096,-0.0746,-0.0746,-0.0746,-0.0746,0,0.0204,0.0207,0.0256,0.0277,0.0296,0.0335,0.039,0.0432,0.0409,0.047,0.0464,0.0381,0.0287,0.0068,-0.0154,-0.0335,-0.0609,-0.0549,-0.0479,-0.0491,-0.0722,-0.0852,-0.103,-0.1129,-0.0595,-0.0594,-0.0592,0,0.0237,0.0272,0.0328,0.0381,0.0399,0.0459,0.0517,0.051,0.0577,0.0613,0.0671,0.0615,0.0624,0.0354,0.0018,-0.0259,-0.0505,-0.0439,-0.0553,-0.0711,-0.0872,-0.0973,-0.1053,-0.0538,-0.0537,-0.0536,-0.0534,0,0.0308,0.0332,0.0381,0.0492,0.0564,0.0649,0.0735,0.0825,0.0844,0.0936,0.1066,0.1087,0.0827,0.0591,0.02,-0.0042,-0.0584,-0.0418,-0.0636,-0.0873,-0.0947,-0.1056,-0.0532,-0.0523,-0.0524,-0.0525,-0.0525,-0.0526,0.0371,0.0428,0.0511,0.062,0.0712,0.0853,0.0965,0.109,0.1261,0.1436,0.1405,0.1494,0.1061,0.055,0.0199,-0.0429,-0.0482,-0.0645,-0.0791,-0.0878,-0.0981,-0.0383,-0.0365,-0.0365,-0.0365,-0.0366,-0.0366,0,0.0457,0.0533,0.0638,0.0783,0.0917,0.0937,0.1131,0.1277,0.154,0.1691,0.1839,0.169,0.117,0.0564,-0.0267,-0.072,-0.0958,-0.0989,-0.1187,-0.1256,-0.0767,-0.0772,-0.0775,-0.0775,-0.0775,-0.0775,-0.0775,-0.0774,0.0511,0.0636,0.0698,0.0948,0.1059,0.1263,0.1395,0.1621,0.1789,0.2052,0.2125,0.2119,0.1661,0.0149,-0.0877,-0.1142,-0.1525,-0.1578,-0.1762,-0.1488,-0.147,-0.1452,-0.1489,-0.1642,-0.1644,-0.22,-0.2205,-0.221]}],[{"header":{"parameterUnit":"m.s-1","parameterCategory":2,"la1":30.2991,"la2":30.254,"lo1":-89.0895,"lo2":-89.0444,"dy":0.0017,"dx":0.0017,"nx":28,"ny":28,"refTime":"2024-11-29T09:00:00:Z","depth":"2","parameterNumber":2,"parameterNumberName":"U-component_of_CURRENTS"},"data":[0,0,0,0,0,0,0,0,0,0,0,0,0,0,0,0,0,0,0,0,0,0,0,0,0,0,0,0,0,0,0,0,0,0,0,0,0,0,0,0,0,0,0,0,0,0,0,0,0,0,0,0,0,0,0,0,0,0,0.244,0.2441,0,0.2491,0.2491,0.2492,0.2504,0.2504,0.2504,0.2505,0.2556,0.2557,0.2558,0,0,0,0,0,0,0,0,0,0,0,0,0,0.2367,0.2367,0.244,0.2441,0.2442,0.2491,0.2491,0.2492,0.2504,0.2504,0.2504,0.2505,0.2555,0.2557,0.2558,0,0,0,0,0,0,0,0,0,0,0,0,0,0.2402,0.2368,0.2439,0.2458,0.246,0.2491,0.2491,0.2492,0.2504,0.2504,0.2505,0.2505,0.2555,0.2557,0.2558,0.2567,0,0,0.2564,0.2565,0,0,0,0,0,0,0,0,0.2399,0.2404,0.2454,0.2456,0.2459,0.2496,0.2485,0.2519,0.2504,0.2482,0.2505,0.2505,0.2539,0.2542,0.2544,0.2569,0.2571,0.2564,0.2565,0.2566,0.2567,0,0,0,0,0,0,0,0.2397,0.2402,0.2455,0.2455,0.2459,0.2469,0.2473,0.2491,0.2505,0.2484,0.2486,0.25,0.2539,0.2542,0.2546,0.2572,0.2564,0.2566,0.2567,0.2568,0.2692,0.2694,0,0,0,0,0,0,0.24,0.2399,0.2454,0.2457,0.2435,0.247,0.2475,0.248,0.2505,0.251,0.25,0.25,0.2539,0.2543,0.2547,0.2645,0.2566,0.2568,0.2569,0.269,0.2692,0.2695,0,0,0,0,0,0,0.2398,0.2404,0.2452,0.2434,0.2441,0.2472,0.2477,0.2481,0.2497,0.2518,0.2522,0.2514,0.2539,0.2545,0.2587,0.2643,0.2569,0.2571,0.2687,0.269,0.2693,0.2784,0,0,0,0,0,0,0.2395,0.2402,0.2411,0.2434,0.2443,0.2481,0.2478,0.2482,0.2507,0.2509,0.2532,0.2535,0.254,0.2584,0.2588,0.2645,0.2572,0.2684,0.2689,0.2692,0.2778,0.279,0.28,0,0,0,0,0,0.2392,0.2405,0.2411,0.2418,0.2452,0.2483,0.2488,0.2507,0.2508,0.252,0.2543,0.2535,0.2613,0.2587,0.2592,0.265,0.2682,0.2687,0.2692,0.2773,0.2787,0.2799,0,0,0,0,0,0,0.2376,0.2409,0.2416,0.2437,0.2464,0.2487,0.2506,0.2514,0.254,0.255,0.2555,0.2562,0.2621,0.2619,0.259,0.2698,0.265,0.2656,0.271,0.2723,0.2734,0.2731,0.2574,0,0,0,0,0,0.2377,0.2397,0.2427,0.2445,0.2461,0.2483,0.25,0.2518,0.2543,0.2554,0.2573,0.2602,0.2643,0.2668,0.2691,0.2746,0.2752,0.2789,0.28,0.2809,0.2811,0.2883,0.29,0.2711,0.2711,0.271,0,0,0.2376,0.2399,0.2409,0.2444,0.2465,0.2503,0.2493,0.253,0.2574,0.2558,0.2618,0.2635,0.2663,0.2729,0.2757,0.2738,0.2866,0.2815,0.2823,0.282,0.289,0.2908,0.2925,0.2714,0.2713,0.2713,0,0,0.2389,0.2403,0.2427,0.2455,0.2501,0.2525,0.2539,0.2576,0.2604,0.2659,0.267,0.2711,0.2765,0.28,0.2825,0.2905,0.2914,0.2931,0.2995,0.3065,0.3082,0.3096,0.3123,0.3139,0.2945,0.2946,0.2946,0,0.2388,0.2421,0.2439,0.2476,0.2509,0.2538,0.258,0.2619,0.2668,0.27,0.2691,0.2788,0.2798,0.2895,0.293,0.293,0.2967,0.2944,0.308,0.3094,0.3108,0.3132,0.3148,0.2951,0.295,0.295,0.2949,0,0.2419,0.2455,0.2474,0.2532,0.2568,0.261,0.2669,0.2713,0.2747,0.2784,0.2872,0.2896,0.2953,0.2977,0.2981,0.3096,0.3089,0.3079,0.3046,0.3132,0.3152,0.3167,0.2958,0.2956,0.2954,0.2953,0,0,0.2396,0.2479,0.2487,0.2525,0.2604,0.2636,0.2721,0.2798,0.2852,0.2914,0.2992,0.3061,0.3075,0.3103,0.3126,0.3189,0.33,0.319,0.3191,0.3214,0.3454,0.3355,0.3361,0.334,0.3344,0.3346,0.3428,0,0.2417,0.2488,0.253,0.261,0.2654,0.2713,0.2782,0.286,0.2923,0.3005,0.3068,0.3141,0.3132,0.317,0.324,0.3283,0.3348,0.3278,0.3368,0.3369,0.327,0.3378,0.3149,0.3196,0.3443,0.3445,0.3447,0,0.243,0.2484,0.2551,0.2651,0.2674,0.2725,0.2833,0.2904,0.3027,0.308,0.3176,0.3223,0.3334,0.3306,0.344,0.3411,0.3445,0.3467,0.3471,0.3356,0.33,0.3152,0.3214,0.3473,0.347,0.3469,0.3467,0,0.2394,0.2499,0.2551,0.2584,0.2695,0.2738,0.2807,0.2917,0.2992,0.3135,0.3197,0.3327,0.3398,0.3481,0.3517,0.3512,0.3643,0.3631,0.3571,0.3562,0.3367,0.3335,0.3733,0.3733,0.3733,0.3732,0.3732,0,0.2392,0.2441,0.2536,0.2563,0.2634,0.2721,0.2807,0.2889,0.3028,0.3105,0.3234,0.331,0.3455,0.3537,0.3567,0.3607,0.3685,0.3599,0.3594,0.3389,0.3361,0.3592,0.3575,0.3735,0.3735,0.3734,0.3734,0,0.2339,0.2402,0.2464,0.2574,0.2611,0.2658,0.2804,0.2867,0.3001,0.3112,0.3167,0.3346,0.3446,0.3541,0.366,0.3651,0.3695,0.3682,0.3409,0.337,0.3557,0.3544,0.3656,0.3653,0.3651,0.365,0.3648,0,0.232,0.2339,0.244,0.2469,0.2516,0.2609,0.2667,0.2832,0.29,0.3097,0.3138,0.3304,0.3385,0.3524,0.3553,0.3606,0.3653,0.339,0.333,0.3575,0.3559,0.3548,0.3538,0.3107,0.3101,0.3097,0.3093,0,0.2276,0.2297,0.2343,0.2394,0.2452,0.2522,0.262,0.2674,0.2842,0.2945,0.3056,0.315,0.3312,0.3286,0.3362,0.3348,0.3366,0.3295,0.3655,0.3153,0.3062,0.3044,0.3051,0.3051,0.3055,0.3058,0.306,0.3062,0.2227,0.2232,0.2273,0.2314,0.2374,0.2402,0.2421,0.2523,0.2612,0.2722,0.2874,0.2942,0.3047,0.3069,0.2997,0.2955,0.3186,0.3058,0.3072,0.309,0.3003,0.2913,0.2856,0.2859,0.2861,0.2864,0.2866,0,0.2162,0.2172,0.2198,0.2232,0.2235,0.2311,0.2362,0.2346,0.2382,0.253,0.2627,0.2503,0.2539,0.2618,0.2528,0.2556,0.252,0.2429,0.237,0.2416,0.2457,0.2334,0.2011,0.2007,0.2004,0.2001,0,0,0.213,0.2116,0.2121,0.2084,0.2107,0.2085,0.2081,0.207,0.2133,0.2143,0.2196,0.2437,0.2574,0.2255,0.2242,0.2108,0.2229,0.2025,0.2726,0.2705,0.274,0.2853,0.2722,0,0,0,0,0]},{"header":{"parameterUnit":"m.s-1","parameterCategory":2,"la1":30.2991,"la2":30.254,"lo1":-89.0895,"lo2":-89.0444,"dy":0.0017,"dx":0.0017,"nx":28,"ny":28,"refTime":"2024-11-29T09:00:00:Z","depth":"2","parameterNumber":3,"parameterNumberName":"V-component_of_CURRENTS"},"data":[0,0,0,0,0,0,0,0,0,0,0,0,0,0,0,0,0,0,0,0,0,0,0,0,0,0,0,0,0,0,0,0,0,0,0,0,0,0,0,0,0,0,0,0,0,0,0,0,0,0,0,0,0,0,0,0,0,0,-0.002,-0.002,0,-0.009,-0.0091,-0.0092,-0.0146,-0.0147,-0.0147,-0.0148,-0.0249,-0.0251,-0.0253,0,0,0,0,0,0,0,0,0,0,0,0,0,0.0021,0.0021,-0.002,-0.0021,-0.0021,-0.009,-0.0091,-0.0092,-0.0146,-0.0147,-0.0147,-0.0148,-0.0248,-0.0251,-0.0254,0,0,0,0,0,0,0,0,0,0,0,0,0,-0.0018,0.0021,-0.0019,-0.0057,-0.0061,-0.009,-0.0091,-0.0092,-0.0146,-0.0147,-0.0148,-0.0148,-0.0247,-0.0251,-0.0254,-0.026,0,0,-0.0264,-0.0266,0,0,0,0,0,0,0,0,-0.0016,-0.0019,-0.005,-0.0054,-0.0059,-0.011,-0.0114,-0.015,-0.0146,-0.0114,-0.0148,-0.0149,-0.0205,-0.0212,-0.0223,-0.0264,-0.0269,-0.0264,-0.0266,-0.0268,-0.0269,0,0,0,0,0,0,0,-0.0013,-0.0017,-0.0048,-0.0051,-0.0056,-0.0086,-0.0092,-0.0121,-0.0155,-0.0117,-0.0121,-0.0128,-0.0207,-0.022,-0.0226,-0.027,-0.0264,-0.0267,-0.0269,-0.0271,-0.0337,-0.0337,0,0,0,0,0,0,-0.0,-0.0014,-0.0046,-0.005,-0.0038,-0.0086,-0.0092,-0.0093,-0.0154,-0.0164,-0.0127,-0.013,-0.0214,-0.0222,-0.023,-0.0246,-0.0268,-0.0271,-0.0273,-0.0338,-0.0337,-0.0337,0,0,0,0,0,0,0.0001,-0.0002,-0.0043,-0.0034,-0.0041,-0.0085,-0.0086,-0.0094,-0.0108,-0.0162,-0.0172,-0.0133,-0.0214,-0.0225,-0.0254,-0.025,-0.0272,-0.0276,-0.0338,-0.0338,-0.0337,-0.0275,0,0,0,0,0,0,0.0003,-0.0001,0.0002,-0.0033,-0.0041,-0.0051,-0.0085,-0.0095,-0.0111,-0.0116,-0.017,-0.018,-0.0216,-0.0249,-0.0258,-0.0255,-0.0278,-0.0338,-0.0338,-0.0337,-0.0278,-0.0273,-0.0269,0,0,0,0,0,0.0004,0.0017,0.0003,-0.0001,-0.0035,-0.005,-0.0057,-0.0092,-0.011,-0.0108,-0.0149,-0.0178,-0.0253,-0.0251,-0.0262,-0.026,-0.0338,-0.0338,-0.0337,-0.028,-0.0274,-0.0269,0,0,0,0,0,0,0.0034,0.0011,-0.0004,-0.0001,-0.0021,-0.0059,-0.0062,-0.0085,-0.0116,-0.0124,-0.0175,-0.0187,-0.0213,-0.0243,-0.024,-0.0278,-0.03,-0.0302,-0.0253,-0.0248,-0.0244,-0.0214,-0.0281,0,0,0,0,0,0.0044,0.0047,0.0018,0.0021,0.0014,-0.0023,-0.0035,-0.0057,-0.0088,-0.0103,-0.0141,-0.0183,-0.0217,-0.0237,-0.027,-0.0289,-0.0317,-0.0295,-0.0291,-0.0287,-0.0269,-0.032,-0.0319,-0.0335,-0.0335,-0.0335,0,0,0.0055,0.0043,0.0043,0.0027,0.0008,0.001,-0.0031,-0.0043,-0.0043,-0.0109,-0.0122,-0.0168,-0.0219,-0.0242,-0.0255,-0.0267,-0.0295,-0.0286,-0.0282,-0.0267,-0.0319,-0.0318,-0.0316,-0.0335,-0.0335,-0.0335,0,0,0.0085,0.007,0.0085,0.0077,0.0056,0.0034,0.0035,0.0001,-0.0016,-0.0037,-0.0085,-0.0117,-0.0175,-0.0202,-0.0226,-0.0213,-0.0269,-0.0239,-0.0194,-0.0244,-0.0243,-0.0242,-0.0266,-0.0268,-0.0238,-0.0237,-0.0237,0,0.0099,0.0116,0.0087,0.0102,0.0102,0.0051,0.0071,0.0048,0.0007,0.0001,-0.0032,-0.0106,-0.0148,-0.017,-0.0174,-0.02,-0.0241,-0.021,-0.0237,-0.0237,-0.0238,-0.0263,-0.0266,-0.0234,-0.0235,-0.0235,-0.0235,0,0.0143,0.0157,0.0166,0.017,0.0165,0.0173,0.0143,0.0133,0.0099,0.0071,0.004,-0.0024,-0.0066,-0.0092,-0.0133,-0.0157,-0.0188,-0.0225,-0.0248,-0.0232,-0.026,-0.0264,-0.023,-0.0231,-0.0232,-0.0233,0,0,0.0177,0.0196,0.0199,0.0221,0.0205,0.0211,0.0212,0.0204,0.0217,0.0153,0.0157,0.0084,0.0038,0.0009,-0.0052,-0.0098,-0.0136,-0.0166,-0.017,-0.0182,-0.0243,-0.025,-0.0255,-0.0199,-0.0199,-0.02,-0.0257,0,0.0222,0.0275,0.0266,0.0313,0.034,0.0307,0.0319,0.0302,0.0273,0.0261,0.0184,0.0158,0.0078,0.0054,-0.0007,-0.01,-0.0147,-0.0116,-0.0261,-0.0264,-0.0268,-0.026,-0.0242,-0.0291,-0.0261,-0.0262,-0.0263,0,0.0271,0.0303,0.0362,0.0402,0.0411,0.0423,0.0443,0.0446,0.0412,0.0392,0.0339,0.027,0.0204,0.0125,-0.0021,-0.0009,-0.0117,-0.0195,-0.0201,-0.0228,-0.0279,-0.0305,-0.03,-0.027,-0.027,-0.0269,-0.0269,0,0.0323,0.0372,0.0426,0.0438,0.0468,0.0486,0.0492,0.0482,0.0509,0.0468,0.0476,0.037,0.0331,0.0175,0.0009,-0.002,-0.0154,-0.0211,-0.0312,-0.0313,-0.0332,-0.0333,-0.0316,-0.0316,-0.0316,-0.0316,-0.0316,0,0.0381,0.0424,0.0455,0.0487,0.0556,0.0544,0.0608,0.0602,0.0609,0.0651,0.054,0.0547,0.0334,0.0225,0.0049,-0.0129,-0.0125,-0.0291,-0.033,-0.0308,-0.0307,-0.032,-0.032,-0.0318,-0.0318,-0.0317,-0.0317,0,0.043,0.045,0.052,0.0565,0.0584,0.0628,0.069,0.0739,0.0729,0.0779,0.0769,0.0682,0.0542,0.0336,0.011,-0.005,-0.0232,-0.0301,-0.0245,-0.0276,-0.037,-0.0366,-0.0419,-0.042,-0.0421,-0.0421,-0.0421,0,0.046,0.0501,0.0581,0.0629,0.0651,0.0716,0.0771,0.0795,0.0855,0.0867,0.0901,0.079,0.0727,0.0412,0.0116,-0.0168,-0.0219,-0.0336,-0.0387,-0.0349,-0.0381,-0.0376,-0.0371,-0.0386,-0.0386,-0.0386,-0.0386,0,0.0518,0.0543,0.0603,0.0705,0.0773,0.0863,0.0938,0.1008,0.1039,0.1079,0.1107,0.1055,0.0765,0.0488,0.011,-0.0096,-0.0291,-0.0347,-0.0329,-0.0357,-0.0321,-0.0351,-0.0347,-0.0387,-0.0387,-0.0387,-0.0386,-0.0386,0.0557,0.061,0.0688,0.0786,0.0874,0.0986,0.1069,0.1153,0.1251,0.1309,0.1261,0.1196,0.0883,0.0403,0.0065,-0.0291,-0.0289,-0.0424,-0.0422,-0.0421,-0.0402,-0.0368,-0.0438,-0.0438,-0.0438,-0.0438,-0.0438,0,0.0605,0.0666,0.0763,0.0883,0.0986,0.1027,0.117,0.1245,0.1361,0.1413,0.1426,0.1133,0.0821,0.0461,-0.0061,-0.0374,-0.0413,-0.0478,-0.0454,-0.0451,-0.0449,-0.0431,-0.0475,-0.0476,-0.0477,-0.0478,0,0,0.0632,0.0726,0.0779,0.0951,0.1041,0.1186,0.1273,0.1374,0.1444,0.1483,0.1459,0.1383,0.0944,0.0569,0.0135,-0.0163,-0.0239,-0.0233,-0.0173,-0.0091,-0.0085,-0.039,-0.0356,0,0,0,0,0]}],[{"header":{"parameterUnit":"m.s-1","parameterCategory":2,"la1":30.2991,"la2":30.254,"lo1":-89.0895,"lo2":-89.0444,"dy":0.0017,"dx":0.0017,"nx":28,"ny":28,"refTime":"2024-11-29T09:00:00:Z","depth":"4","parameterNumber":2,"parameterNumberName":"U-component_of_CURRENTS"},"data":[0,0,0,0,0,0,0,0,0,0,0,0,0,0,0,0,0,0,0,0,0,0,0,0,0,0,0,0,0,0,0,0,0,0,0,0,0,0,0,0,0,0,0,0,0,0,0,0,0,0,0,0,0,0,0,0,0,0,0.1531,0.1531,0,0.1598,0.1598,0.1599,0.1657,0.1658,0.1658,0.1659,0.1729,0.173,0.1731,0,0,0,0,0,0,0,0,0,0,0,0,0,0.1435,0.1436,0.1531,0.1532,0.1532,0.1597,0.1598,0.1599,0.1657,0.1658,0.1659,0.1659,0.1729,0.173,0.1731,0,0,0,0,0,0,0,0,0,0,0,0,0,0.1486,0.1437,0.153,0.157,0.1574,0.1597,0.1598,0.1599,0.1657,0.1658,0.1659,0.166,0.1728,0.173,0.1732,0.1721,0,0,0.1737,0.1738,0,0,0,0,0,0,0,0,0.1483,0.1489,0.1563,0.1567,0.1572,0.1621,0.159,0.164,0.1656,0.1624,0.1659,0.166,0.1693,0.1697,0.1707,0.1724,0.1727,0.1737,0.1738,0.1739,0.174,0,0,0,0,0,0,0,0.1479,0.1487,0.1556,0.1564,0.1569,0.1578,0.1586,0.16,0.1651,0.1627,0.1632,0.164,0.1695,0.1705,0.1709,0.1728,0.1737,0.1739,0.174,0.1741,0.1826,0.1827,0,0,0,0,0,0,0.1473,0.1483,0.1554,0.1559,0.153,0.1579,0.1588,0.1603,0.1651,0.166,0.1639,0.1643,0.1701,0.1707,0.1711,0.1788,0.1739,0.1741,0.1742,0.1825,0.1826,0.1828,0,0,0,0,0,0,0.147,0.1478,0.1552,0.1523,0.1533,0.1579,0.1596,0.1604,0.1648,0.166,0.1669,0.1678,0.1702,0.1709,0.1752,0.1788,0.1742,0.1743,0.1823,0.1825,0.1827,0.1886,0,0,0,0,0,0,0.1467,0.1477,0.1501,0.1522,0.1534,0.1584,0.1595,0.1605,0.1649,0.1655,0.1696,0.1701,0.1704,0.1749,0.1754,0.1789,0.1745,0.1822,0.1824,0.1826,0.1882,0.1889,0.1895,0,0,0,0,0,0.1464,0.1481,0.1501,0.1511,0.156,0.1585,0.1592,0.1628,0.165,0.1671,0.1702,0.1702,0.1767,0.1752,0.1757,0.1794,0.1821,0.1824,0.1826,0.1879,0.1888,0.1895,0,0,0,0,0,0,0.145,0.1489,0.1512,0.1542,0.1573,0.1596,0.1622,0.1645,0.1686,0.1704,0.1716,0.1724,0.1772,0.1773,0.1756,0.1824,0.1794,0.1798,0.1833,0.1841,0.1847,0.1838,0.1746,0,0,0,0,0,0.1458,0.1487,0.1519,0.1548,0.1566,0.1602,0.1624,0.1649,0.1679,0.1701,0.1729,0.1758,0.178,0.1805,0.1818,0.1859,0.1864,0.1885,0.1892,0.1897,0.1893,0.1935,0.1946,0.1836,0.1836,0.1836,0,0,0.1461,0.1487,0.1505,0.1549,0.1578,0.1603,0.1619,0.166,0.1688,0.17,0.1758,0.1781,0.1794,0.1837,0.1859,0.185,0.1935,0.1901,0.1906,0.1898,0.1939,0.195,0.1959,0.1838,0.1838,0.1838,0,0,0.1465,0.1507,0.1529,0.1559,0.1609,0.1626,0.1645,0.169,0.1723,0.1769,0.1787,0.183,0.187,0.1889,0.19,0.1949,0.1962,0.1967,0.2004,0.2046,0.2055,0.2063,0.2098,0.2109,0.1979,0.1979,0.1979,0,0.147,0.1501,0.1539,0.1568,0.1596,0.1638,0.1665,0.1697,0.1753,0.1786,0.1795,0.1876,0.1887,0.194,0.196,0.1964,0.1993,0.1975,0.2055,0.2063,0.2071,0.2104,0.2115,0.1982,0.1982,0.1981,0.1981,0,0.1483,0.1521,0.1537,0.1588,0.1622,0.1654,0.1698,0.1745,0.1789,0.1823,0.1898,0.1924,0.1977,0.199,0.199,0.2059,0.2065,0.2054,0.2035,0.2085,0.2117,0.2128,0.1986,0.1985,0.1984,0.1984,0,0,0.1459,0.1532,0.1541,0.1572,0.1639,0.1663,0.172,0.1776,0.1829,0.1887,0.1953,0.1996,0.2039,0.2053,0.2077,0.211,0.2188,0.2115,0.2116,0.215,0.2295,0.2179,0.2179,0.2207,0.2209,0.221,0.2302,0,0.146,0.1507,0.1548,0.1599,0.1626,0.169,0.174,0.1805,0.1866,0.1941,0.1989,0.2059,0.2057,0.2108,0.2142,0.218,0.2217,0.2164,0.224,0.2242,0.2133,0.2187,0.2216,0.2309,0.2312,0.2313,0.2315,0,0.1452,0.1489,0.1538,0.1614,0.1636,0.1679,0.1779,0.1834,0.1939,0.1996,0.208,0.2126,0.2206,0.2187,0.2282,0.2261,0.2283,0.2296,0.23,0.2172,0.2144,0.2246,0.2333,0.2332,0.2331,0.2329,0.2328,0,0.1403,0.1477,0.1517,0.1546,0.164,0.169,0.1751,0.1859,0.1923,0.2052,0.2119,0.221,0.2283,0.2324,0.2372,0.2346,0.246,0.2423,0.2334,0.2327,0.2379,0.2369,0.2474,0.2474,0.2474,0.2473,0.2473,0,0.137,0.1405,0.1507,0.153,0.1594,0.1682,0.1768,0.1849,0.1976,0.2054,0.2163,0.2235,0.2325,0.2401,0.2412,0.2418,0.2505,0.2344,0.2343,0.2403,0.2394,0.2387,0.2376,0.2477,0.2476,0.2475,0.2475,0,0.1302,0.1369,0.1419,0.153,0.1571,0.1626,0.1765,0.1826,0.1973,0.2081,0.2133,0.2286,0.2388,0.246,0.2535,0.2468,0.248,0.2458,0.254,0.2541,0.2305,0.2296,0.235,0.2346,0.2343,0.2341,0.2339,0,0.1264,0.1288,0.1405,0.1444,0.1499,0.1595,0.1656,0.1805,0.1873,0.2091,0.2129,0.2293,0.2374,0.2401,0.2475,0.2503,0.2469,0.2454,0.234,0.2299,0.2294,0.2289,0.2284,0.2335,0.2334,0.2333,0.2332,0,0.1191,0.1251,0.1296,0.1376,0.1445,0.1511,0.1617,0.1655,0.1833,0.1974,0.2084,0.2152,0.2265,0.2322,0.2378,0.2382,0.2446,0.2423,0.2427,0.232,0.2282,0.2278,0.2276,0.2323,0.2324,0.2325,0.2325,0,0.1138,0.1156,0.1231,0.1291,0.1373,0.1419,0.148,0.157,0.1659,0.1893,0.1922,0.2103,0.2244,0.2263,0.231,0.2318,0.2262,0.2161,0.2177,0.2189,0.2093,0.2018,0.1982,0,0,0,0,0,0.108,0.1094,0.1142,0.1201,0.1279,0.1333,0.1451,0.152,0.1681,0.1712,0.1817,0.1916,0.2009,0.2099,0.2073,0.2226,0.2262,0.2184,0.2152,0.2268,0.2279,0.218,0,0,0,0,0,0,0.1036,0.1078,0.1105,0.1119,0.1149,0.1222,0.1296,0.1404,0.143,0.1605,0.1668,0.1798,0.1916,0.2011,0.2038,0.2063,0.2002,0.2291,0.2286,0.2262,0.2272,0.2281,0.2182,0,0,0,0,0]},{"header":{"parameterUnit":"m.s-1","parameterCategory":2,"la1":30.2991,"la2":30.254,"lo1":-89.0895,"lo2":-89.0444,"dy":0.0017,"dx":0.0017,"nx":28,"ny":28,"refTime":"2024-11-29T09:00:00:Z","depth":"4","parameterNumber":3,"parameterNumberName":"V-component_of_CURRENTS"},"data":[0,0,0,0,0,0,0,0,0,0,0,0,0,0,0,0,0,0,0,0,0,0,0,0,0,0,0,0,0,0,0,0,0,0,0,0,0,0,0,0,0,0,0,0,0,0,0,0,0,0,0,0,0,0,0,0,0,0,0.0073,0.0073,0,0.003,0.003,0.0029,-0.0006,-0.0006,-0.0007,-0.0007,-0.0063,-0.0064,-0.0065,0,0,0,0,0,0,0,0,0,0,0,0,0,0.0095,0.0095,0.0073,0.0073,0.0072,0.003,0.003,0.0029,-0.0006,-0.0006,-0.0007,-0.0007,-0.0062,-0.0064,-0.0065,0,0,0,0,0,0,0,0,0,0,0,0,0,0.0072,0.0095,0.0073,0.005,0.0048,0.0031,0.003,0.0029,-0.0006,-0.0006,-0.0007,-0.0007,-0.0062,-0.0063,-0.0065,-0.0067,0,0,-0.0071,-0.0072,0,0,0,0,0,0,0,0,0.0073,0.0071,0.0054,0.0052,0.0049,0.0018,0.0017,-0.0004,-0.0006,0.0014,-0.0007,-0.0007,-0.0036,-0.004,-0.0048,-0.007,-0.0072,-0.0071,-0.0072,-0.0073,-0.0073,0,0,0,0,0,0,0,0.0075,0.0073,0.0056,0.0054,0.0051,0.0032,0.0028,0.0013,-0.0009,0.0012,0.001,0.0006,-0.0038,-0.0046,-0.0049,-0.0073,-0.0071,-0.0072,-0.0074,-0.0074,-0.0091,-0.009,0,0,0,0,0,0,0.0084,0.0074,0.0057,0.0054,0.0061,0.0032,0.0028,0.0028,-0.0008,-0.0014,0.0007,0.0005,-0.0043,-0.0047,-0.0052,-0.0035,-0.0073,-0.0074,-0.0075,-0.0091,-0.0091,-0.009,0,0,0,0,0,0,0.0085,0.0083,0.0059,0.0064,0.0059,0.0033,0.0032,0.0027,0.0019,-0.0012,-0.0019,0.0004,-0.0043,-0.0049,-0.006,-0.0038,-0.0075,-0.0077,-0.0092,-0.0091,-0.009,-0.0015,0,0,0,0,0,0,0.0085,0.0083,0.0087,0.0064,0.0059,0.0058,0.0033,0.0027,0.0018,0.0015,-0.0016,-0.0022,-0.0044,-0.0057,-0.0062,-0.0041,-0.0078,-0.0093,-0.0092,-0.0091,-0.0018,-0.0011,-0.0005,0,0,0,0,0,0.0086,0.0097,0.0087,0.0085,0.0065,0.0058,0.0054,0.0033,0.0019,0.0022,-0.0001,-0.0021,-0.0053,-0.0058,-0.0064,-0.0043,-0.0094,-0.0092,-0.0091,-0.0021,-0.0012,-0.0005,0,0,0,0,0,0,0.0108,0.0094,0.0083,0.0088,0.0077,0.0053,0.0054,0.0037,0.0022,0.0017,-0.0015,-0.0022,-0.0023,-0.0046,-0.0051,-0.0045,-0.0076,-0.0075,-0.002,-0.0013,-0.0007,0.0006,-0.008,0,0,0,0,0,0.0115,0.0119,0.0101,0.0105,0.0102,0.0078,0.0072,0.0058,0.0041,0.0033,0.001,-0.0011,-0.0021,-0.0027,-0.0044,-0.0041,-0.0078,-0.0032,-0.0026,-0.002,-0.0014,-0.0045,-0.0041,-0.0085,-0.0085,-0.0085,0,0,0.0123,0.0117,0.0118,0.011,0.0098,0.0107,0.0073,0.007,0.0081,0.003,0.0035,0.0008,-0.0017,-0.0013,-0.0015,-0.0028,-0.003,-0.0018,-0.0013,-0.001,-0.0043,-0.0039,-0.0035,-0.0084,-0.0084,-0.0085,0,0,0.0149,0.0138,0.0153,0.0151,0.0141,0.0128,0.013,0.011,0.0105,0.0104,0.0073,0.0061,0.0041,0.0031,0.0024,0.0054,0.0003,0.0047,0.0092,0.0062,0.0066,0.0068,0.0015,0.0012,0.0052,0.0053,0.0053,0,0.016,0.0178,0.0156,0.0173,0.018,0.0143,0.0166,0.0158,0.0137,0.0138,0.0117,0.0089,0.0067,0.0077,0.0088,0.0071,0.0032,0.0069,0.0071,0.0073,0.0074,0.0018,0.0014,0.0056,0.0056,0.0056,0.0055,0,0.0199,0.0216,0.0226,0.0237,0.024,0.0253,0.0241,0.024,0.0224,0.0212,0.021,0.0174,0.0158,0.0152,0.0131,0.0136,0.0096,0.0081,0.0054,0.0083,0.0022,0.0017,0.0062,0.006,0.0059,0.0058,0,0,0.0218,0.0248,0.0252,0.0276,0.0278,0.0286,0.0305,0.0312,0.0326,0.0299,0.0311,0.0293,0.0259,0.0248,0.0214,0.0191,0.0164,0.0145,0.0142,0.0095,0.0074,0.0048,0.0038,0.0146,0.0146,0.0146,0.0022,0,0.0256,0.0309,0.0312,0.0362,0.0389,0.0374,0.0398,0.0398,0.0386,0.0384,0.0347,0.0342,0.0301,0.0291,0.0263,0.0187,0.0154,0.0197,0.0049,0.0044,0.0022,0.0034,0.0145,0.0018,0.0017,0.0016,0.0015,0,0.0293,0.0327,0.0387,0.0434,0.0444,0.0468,0.0493,0.0511,0.0498,0.0487,0.0465,0.0423,0.0387,0.0346,0.0235,0.026,0.0177,0.0114,0.0108,0.0056,0.0009,-0.0016,0.0004,0.0005,0.0006,0.0006,0.0007,0,0.0321,0.0379,0.0432,0.0449,0.0493,0.0518,0.0537,0.0541,0.0564,0.0547,0.0544,0.0487,0.0452,0.0355,0.0219,0.0225,0.0079,0.0068,-0.0035,-0.004,-0.0014,-0.0016,-0.0006,-0.0006,-0.0006,-0.0006,-0.0005,0,0.0361,0.0404,0.0452,0.0485,0.0548,0.0561,0.0618,0.0622,0.0633,0.0656,0.0598,0.0584,0.0453,0.0351,0.0231,0.0072,0.0082,-0.0028,-0.0066,0.0018,0.0022,-0.002,-0.0019,-0.001,-0.0009,-0.0008,-0.0008,0,0.0381,0.0414,0.048,0.0541,0.0565,0.0608,0.0674,0.0708,0.0709,0.0732,0.0728,0.0648,0.0512,0.0361,0.0184,0.0085,-0.0061,-0.012,-0.0039,-0.007,-0.0165,-0.016,-0.0241,-0.0242,-0.0244,-0.0245,-0.0246,0,0.0396,0.0433,0.0518,0.0559,0.0591,0.0659,0.0707,0.0741,0.0775,0.0766,0.0771,0.0658,0.0581,0.031,0.0149,-0.0092,-0.012,-0.0203,-0.0159,-0.0157,-0.0186,-0.0178,-0.0171,-0.0249,-0.0249,-0.0249,-0.025,0,0.0421,0.045,0.0503,0.0588,0.065,0.0725,0.0791,0.0821,0.0852,0.0856,0.0803,0.0669,0.0508,0.0306,0.011,-0.0056,-0.0148,-0.0219,-0.0217,-0.0176,-0.0168,-0.0193,-0.0184,-0.0255,-0.0254,-0.0254,-0.0253,0,0.0432,0.0467,0.0533,0.0606,0.0688,0.0758,0.08,0.0835,0.0869,0.086,0.0835,0.0672,0.0581,0.0322,0.0145,-0.0027,-0.006,-0.0103,-0.0107,-0.0104,-0.0023,0.0011,-0.0052,0,0,0,0,0,0.0435,0.0473,0.0544,0.0625,0.0707,0.0755,0.084,0.0874,0.0906,0.0876,0.086,0.0712,0.0453,0.0343,0.0167,0.0107,-0.01,-0.0105,-0.0154,-0.0284,-0.0278,-0.0207,0,0,0,0,0,0,0.0435,0.0497,0.0536,0.0625,0.0681,0.0772,0.0829,0.0854,0.0843,0.0847,0.0715,0.0661,0.0409,0.0546,0.0158,0.0106,0.0051,-0.0221,-0.0225,-0.0287,-0.0282,-0.0277,-0.0202,0,0,0,0,0]}]]